Orbital Elements at Epoch 2459200.5 (2020-Dec-17.0) TDB
Reference: JPL 13 (heliocentric ecliptic J2000)
Element | Value | Uncertainty (1-sigma) | Units |
e | .09068100330499024 | 6.9787e-08 | |
a | 1.894750797570332 | 7.978e-09 | au |
q | 1.722932894233724 | 1.277e-07 | au |
i | 18.27499469006272 | 5.1632e-06 | deg |
node | 306.4407340497003 | 1.6724e-05 | deg |
peri | 334.8209307574808 | 5.5857e-05 | deg |
M | 244.3015033909706 | 5.8385e-05 | deg |
tp | 2459506.662354895868 (2021-Oct-19.16235490) | 0.00015556 | TDB |
period | 952.6350902809451 2.61 | 6.0167e-06 1.647e-08 | d yr |
n | .3778991595762351 | 2.3868e-09 | deg/d |
Q | 2.06656870090694 | 8.7014e-09 | au |
|
| | Orbit Determination Parameters
Additional Information
|